[[{"header":{"parameterUnit":"m.s-1","parameterCategory":1,"la1":30.2991,"la2":30.254,"lo1":-89.0895,"lo2":-89.0444,"dy":0.0017,"dx":0.0017,"nx":28,"ny":28,"refTime":"2025-07-08T21:00:00:Z","depth":0,"parameterNumber":2,"parameterNumberName":"U-component_of_WINDS"},"data":[0,0,0,0,0,0,0,0,0,0,0,0,0,0,0,0,0,0,0,0,0,0,0,0,0,0,0,0,0,0,0,0,0,0,0,0,0,0,0,0,0,0,0,0,0,0,0,0,0,0,0,0,0,0,0,0,0,0,1.973,1.973,0,1.9725,1.9725,1.9725,1.9664,1.9662,1.9661,1.9659,1.9659,1.966,1.9662,0,0,0,0,0,0,0,0,0,0,0,0,0,1.9691,1.9692,1.973,1.973,1.973,1.9725,1.9725,1.9725,1.9664,1.9662,1.966,1.9659,1.9658,1.966,1.9662,0,0,0,0,0,0,0,0,0,0,0,0,0,1.9699,1.9692,1.973,1.9699,1.9696,1.9725,1.9725,1.9725,1.9665,1.9662,1.966,1.9658,1.9658,1.966,1.9662,1.9723,0,0,1.9669,1.967,0,0,0,0,0,0,0,0,1.9699,1.9701,1.9703,1.9701,1.9698,1.9693,1.9711,1.9725,1.9665,1.9677,1.9659,1.9656,1.9672,1.9673,1.9678,1.9723,1.9723,1.9669,1.967,1.9671,1.9672,0,0,0,0,0,0,0,1.9699,1.9701,1.9728,1.9704,1.97,1.9687,1.9685,1.9714,1.9688,1.9675,1.9671,1.9671,1.967,1.9676,1.9677,1.9723,1.9669,1.9671,1.9672,1.9673,1.9818,1.9821,0,0,0,0,0,0,1.9702,1.9701,1.9728,1.9728,1.9693,1.9689,1.9688,1.9697,1.9687,1.9684,1.9673,1.9668,1.9673,1.9675,1.9677,1.9748,1.9671,1.9673,1.9675,1.9816,1.9819,1.9822,0,0,0,0,0,0,1.9701,1.9705,1.9729,1.9713,1.9715,1.9692,1.9703,1.9698,1.9703,1.9685,1.9681,1.9683,1.9671,1.9674,1.9712,1.9747,1.9674,1.9676,1.9813,1.9817,1.982,1.989,0,0,0,0,0,0,1.97,1.9705,1.9726,1.9714,1.9716,1.9762,1.9705,1.97,1.9706,1.97,1.9693,1.969,1.967,1.9709,1.9714,1.9749,1.9678,1.981,1.9815,1.9819,1.9884,1.9896,1.9905,0,0,0,0,0,1.9699,1.9747,1.9728,1.9731,1.9742,1.9764,1.9766,1.974,1.9709,1.9732,1.9721,1.969,1.9742,1.9713,1.9718,1.9754,1.9807,1.9813,1.9819,1.988,1.9893,1.9905,0,0,0,0,0,0,1.9765,1.9745,1.9723,1.9768,1.9768,1.9754,1.9781,1.9755,1.9765,1.9759,1.9728,1.9727,1.977,1.9766,1.9734,1.9813,1.977,1.9777,1.9814,1.9827,1.9837,1.9838,1.968,0,0,0,0,0,1.9785,1.9803,1.9784,1.9826,1.9827,1.9804,1.9813,1.9793,1.9792,1.9793,1.9784,1.9786,1.9803,1.9815,1.9829,1.9883,1.9882,1.9911,1.9921,1.993,1.9937,1.9967,1.998,1.9841,1.9841,1.984,0,0,1.9826,1.9817,1.983,1.9839,1.9837,1.9858,1.9805,1.9829,1.9845,1.9797,1.9831,1.9826,1.9826,1.9873,1.9893,1.9871,1.9975,1.9937,1.9944,1.9946,1.9974,1.9987,1.9999,1.9844,1.9844,1.9843,0,0,1.9911,1.9906,1.994,1.9939,1.9936,1.9921,1.9929,1.9919,1.9913,1.9947,1.9912,1.9931,1.996,1.9962,1.9967,2.0054,2.0027,2.006,2.0115,2.0144,2.0155,2.0165,2.0197,2.0209,2.0066,2.0067,2.0067,0,1.9963,1.9992,1.9962,1.9988,1.9994,1.995,1.9986,1.9987,1.9989,1.9995,1.997,2.0006,2.0003,2.005,2.0071,2.0076,2.0086,2.0061,2.0156,2.0165,2.0174,2.0204,2.0216,2.0071,2.007,2.007,2.0069,0,2.0057,2.0077,2.0106,2.0108,2.0117,2.0148,2.0124,2.0137,2.0116,2.0104,2.0141,2.0136,2.0149,2.0159,2.0139,2.0204,2.019,2.0161,2.0117,2.0191,2.022,2.0231,2.0076,2.0075,2.0074,2.0073,0,0,2.0184,2.0169,2.018,2.0181,2.0175,2.0191,2.0221,2.0232,2.0244,2.0248,2.0273,2.0299,2.0272,2.0278,2.0259,2.0285,2.0356,2.0252,2.0252,2.0273,2.0428,2.045,2.0464,2.0337,2.034,2.0341,2.0428,0,2.0267,2.0315,2.029,2.0343,2.0362,2.0321,2.0348,2.0348,2.0338,2.0354,2.0343,2.0362,2.0325,2.0328,2.0352,2.0342,2.0387,2.0335,2.0363,2.0364,2.0364,2.0479,2.0502,2.0584,2.0439,2.0441,2.0442,0,2.037,2.0377,2.0432,2.0423,2.043,2.0454,2.0463,2.0478,2.0478,2.0469,2.0476,2.0451,2.0481,2.0437,2.048,2.0445,2.0455,2.0452,2.0455,2.0457,2.0408,2.0485,2.061,2.0623,2.0459,2.0457,2.0456,0,2.0459,2.0482,2.0517,2.0519,2.0509,2.0528,2.0525,2.0522,2.0531,2.0539,2.0545,2.0558,2.0565,2.0576,2.0556,2.0525,2.0602,2.0555,2.0597,2.0597,2.0615,2.0614,2.0744,2.062,2.062,2.062,2.062,0,2.0555,2.059,2.0557,2.0579,2.0618,2.0589,2.0629,2.0622,2.062,2.0641,2.0607,2.0628,2.06,2.0619,2.0603,2.0642,2.0645,2.064,2.0635,2.0643,2.0644,2.065,2.0644,2.0623,2.0622,2.0622,2.0621,0,2.066,2.0639,2.0676,2.0663,2.0661,2.0691,2.0681,2.0702,2.0689,2.0717,2.0722,2.0703,2.0723,2.0704,2.0724,2.0713,2.0765,2.0752,2.0765,2.0761,2.0804,2.08,2.0942,2.096,2.0824,2.0826,2.0827,0,2.0723,2.0749,2.0739,2.075,2.0749,2.0768,2.0776,2.0749,2.076,2.0763,2.0784,2.0801,2.0814,2.0849,2.0838,2.0853,2.0841,2.089,2.0843,2.0851,2.0843,2.0842,2.0845,2.09,2.0901,2.0903,2.0904,0,2.0837,2.0826,2.0839,2.0849,2.086,2.0867,2.0872,2.0883,2.0855,2.087,2.089,2.0899,2.0919,2.0938,2.095,2.0948,2.0922,2.0918,2.0929,2.0937,2.0944,2.0942,2.0791,2.0915,2.0914,2.0913,2.0913,2.0912,2.0924,2.0945,2.0942,2.0958,2.0959,2.0964,2.0983,2.0973,2.0989,2.1002,2.0985,2.101,2.1011,2.1024,2.1026,2.1046,2.1026,2.1041,2.1045,2.1049,2.1056,2.094,2.1049,2.1048,2.1048,2.1048,2.1047,0,2.1037,2.1033,2.1048,2.1055,2.1068,2.1041,2.1045,2.1058,2.108,2.1082,2.1095,2.1119,2.1137,2.1127,2.1143,2.1162,2.115,2.1167,2.1166,2.1166,2.1073,2.1062,2.1176,2.1176,2.1176,2.1176,2.1176,2.1176,2.1097,2.1133,2.1121,2.1157,2.1153,2.1176,2.1181,2.1187,2.1188,2.1216,2.123,2.1223,2.1221,2.1237,2.1253,2.125,2.1258,2.1279,2.1272,2.1185,2.1172,2.116,2.115,2.128,2.1281,2.1363,2.1364,2.1365]},{"header":{"parameterUnit":"m.s-1","parameterCategory":1,"la1":30.2991,"la2":30.254,"lo1":-89.0895,"lo2":-89.0444,"dy":0.0017,"dx":0.0017,"nx":28,"ny":28,"refTime":"2025-07-08T21:00:00:Z","depth":0,"parameterNumber":3,"parameterNumberName":"V-component_of_WINDS"},"data":[0,0,0,0,0,0,0,0,0,0,0,0,0,0,0,0,0,0,0,0,0,0,0,0,0,0,0,0,0,0,0,0,0,0,0,0,0,0,0,0,0,0,0,0,0,0,0,0,0,0,0,0,0,0,0,0,0,0,2.2717,2.2717,0,2.2672,2.2671,2.2671,2.2674,2.2675,2.2676,2.2676,2.2625,2.2623,2.2621,0,0,0,0,0,0,0,0,0,0,0,0,0,2.2801,2.2799,2.2717,2.2716,2.2716,2.2672,2.2671,2.267,2.2674,2.2675,2.2676,2.2677,2.2625,2.2623,2.262,0,0,0,0,0,0,0,0,0,0,0,0,0,2.2761,2.2799,2.2717,2.2713,2.2712,2.2672,2.2671,2.267,2.2674,2.2675,2.2676,2.2677,2.2626,2.2623,2.262,2.258,0,0,2.2611,2.261,0,0,0,0,0,0,0,0,2.2763,2.2758,2.2714,2.2713,2.2712,2.268,2.2682,2.264,2.2674,2.2688,2.2676,2.2677,2.2642,2.2638,2.2627,2.2578,2.2576,2.2611,2.2609,2.2607,2.2607,0,0,0,0,0,0,0,2.2766,2.276,2.2699,2.2713,2.2712,2.2711,2.2706,2.2674,2.2659,2.2687,2.2687,2.2682,2.2641,2.2629,2.2625,2.2575,2.2611,2.2608,2.2606,2.2605,2.2489,2.2488,0,0,0,0,0,0,2.277,2.2762,2.27,2.2698,2.2741,2.2708,2.2703,2.2689,2.266,2.2657,2.2681,2.2682,2.2634,2.2629,2.2624,2.2573,2.2607,2.2605,2.2603,2.249,2.2488,2.2487,0,0,0,0,0,0,2.2772,2.2765,2.2702,2.273,2.2722,2.2706,2.269,2.2687,2.2676,2.2656,2.2652,2.2672,2.2635,2.2628,2.2591,2.2571,2.2603,2.26,2.2491,2.249,2.2488,2.2473,0,0,0,0,0,0,2.2775,2.2766,2.2752,2.273,2.272,2.2672,2.2688,2.2686,2.2671,2.2672,2.2646,2.2643,2.2635,2.2595,2.2588,2.2568,2.2598,2.2493,2.2491,2.2488,2.2475,2.2471,2.2468,0,0,0,0,0,2.2778,2.2749,2.2751,2.2744,2.2703,2.2671,2.2665,2.2659,2.2669,2.2654,2.2641,2.2644,2.2575,2.2592,2.2583,2.2562,2.2494,2.2491,2.2489,2.2477,2.2472,2.2468,0,0,0,0,0,0,2.2768,2.2746,2.2748,2.2712,2.2693,2.2672,2.2653,2.2654,2.2631,2.2632,2.2624,2.2618,2.258,2.2567,2.2586,2.2521,2.2536,2.2531,2.253,2.2525,2.2521,2.2524,2.2596,0,0,0,0,0,2.2762,2.2739,2.2721,2.269,2.2681,2.2669,2.2654,2.2651,2.2631,2.2622,2.2607,2.2585,2.2559,2.2541,2.2516,2.2474,2.2467,2.2455,2.2451,2.2448,2.2443,2.2417,2.2411,2.2478,2.2478,2.2478,0,0,2.2748,2.2734,2.272,2.2688,2.2673,2.2648,2.2662,2.2635,2.2616,2.2618,2.2582,2.2569,2.2545,2.2505,2.2486,2.2493,2.2424,2.2444,2.2442,2.2439,2.2414,2.2408,2.2402,2.2476,2.2476,2.2476,0,0,2.271,2.2698,2.2671,2.2656,2.2634,2.2626,2.2619,2.2597,2.2589,2.2553,2.2554,2.2529,2.2485,2.2467,2.2451,2.2406,2.2406,2.2398,2.2376,2.2351,2.2346,2.2341,2.2322,2.2316,2.2394,2.2394,2.2394,0,2.2696,2.266,2.2656,2.2629,2.2613,2.2616,2.2586,2.2572,2.2542,2.253,2.2539,2.2482,2.2466,2.242,2.2409,2.2397,2.2387,2.24,2.2347,2.2343,2.2338,2.232,2.2313,2.2393,2.2393,2.2393,2.2393,0,2.2642,2.2617,2.2597,2.2569,2.2552,2.2524,2.2513,2.2496,2.2494,2.2483,2.2445,2.2426,2.2396,2.2385,2.2383,2.2338,2.2343,2.235,2.2364,2.2331,2.2313,2.2307,2.2391,2.2391,2.2392,2.2392,0,0,2.2596,2.2567,2.2559,2.2546,2.2521,2.2501,2.2471,2.2444,2.2428,2.2407,2.238,2.2342,2.2348,2.233,2.2325,2.2304,2.2266,2.2313,2.2312,2.2303,2.2213,2.2206,2.2198,2.2267,2.2265,2.2264,2.2214,0,2.2554,2.2505,2.2499,2.2454,2.2429,2.243,2.2404,2.2385,2.2375,2.2351,2.2339,2.2311,2.2322,2.2311,2.229,2.2275,2.2247,2.2279,2.2239,2.2237,2.2243,2.219,2.2183,2.2137,2.2207,2.2206,2.2205,0,2.2499,2.2477,2.243,2.2407,2.2396,2.2374,2.2346,2.2324,2.2302,2.2295,2.2276,2.2273,2.2241,2.2258,2.2211,2.2233,2.2216,2.2206,2.2204,2.2198,2.2218,2.218,2.2122,2.2114,2.2195,2.2196,2.2197,0,2.2467,2.2426,2.2392,2.2381,2.2354,2.2338,2.2326,2.2305,2.2287,2.2263,2.2251,2.2223,2.2207,2.2184,2.2173,2.2187,2.2126,2.2143,2.2117,2.2117,2.2102,2.2103,2.2038,2.2095,2.2096,2.2096,2.2096,0,2.2419,2.2389,2.2377,2.2356,2.2322,2.2315,2.2281,2.2269,2.225,2.2224,2.2224,2.2199,2.2188,2.216,2.2152,2.2112,2.2106,2.2098,2.2095,2.2096,2.2097,2.2084,2.2086,2.2094,2.2094,2.2095,2.2095,0,2.2377,2.2369,2.2331,2.2309,2.2303,2.2278,2.2259,2.2236,2.2227,2.2194,2.2186,2.2169,2.2137,2.2125,2.2086,2.2079,2.2033,2.2035,2.2041,2.204,2.2014,2.2016,2.1937,2.1925,2.1992,2.1991,2.1991,0,2.2347,2.2324,2.23,2.2284,2.2271,2.2245,2.2228,2.222,2.2202,2.2174,2.2154,2.2123,2.2097,2.2046,2.2029,2.1998,2.1997,2.1971,2.1992,2.1993,2.1993,2.1994,2.199,2.1966,2.1966,2.1965,2.1965,0,2.2292,2.2289,2.2265,2.2239,2.2219,2.2197,2.2176,2.2163,2.2151,2.213,2.2098,2.2079,2.2039,2.2006,2.1975,2.1959,2.1959,2.1959,2.1951,2.195,2.1954,2.1949,2.2028,2.196,2.1961,2.1961,2.1961,2.1961,2.2253,2.2232,2.2212,2.2184,2.2168,2.2149,2.2126,2.2114,2.2088,2.2056,2.2053,2.2018,2.1993,2.1951,2.1935,2.1905,2.1912,2.1901,2.1897,2.1894,2.1891,2.1961,2.19,2.19,2.19,2.19,2.19,0,2.2196,2.2183,2.2159,2.213,2.2108,2.2112,2.2089,2.2069,2.2039,2.2018,2.1993,2.1955,2.1923,2.1904,2.1871,2.1851,2.185,2.1843,2.1843,2.1839,2.1889,2.1898,2.1844,2.1844,2.1844,2.1844,2.1844,2.1844,2.2164,2.2128,2.2122,2.2077,2.2064,2.2031,2.2017,2.1998,2.198,2.1939,2.1913,2.1901,2.188,2.1846,2.1816,2.1811,2.1797,2.1789,2.1784,2.183,2.1836,2.1841,2.185,2.1787,2.1787,2.1737,2.1736,2.1736]}]]